Simultaneous Nadir Overpasses (SNOs) Predictions

Prediction of SNOs between GOES-16 and NPP Satellite Orbit:

Table of predicted SNOs for the next 14.0 days since TLE Epoch: 9/3/2022
Index Date Time (GOES-16) GOES-16 Lat,Lon NPP Lat,Lon Distance(km) Time Diff (sec)
1 09/03/2022 18:40:02 -0.04, -75.21 -0.89, -78.84 414.48 80
2 09/04/2022 18:23:59 -0.04, -75.21 0.17, -74.32 101.92 80
3 09/06/2022 06:45:47 0.03, -75.21 1.02, -79.59 498.49 80
4 09/07/2022 06:27:04 0.02, -75.22 -0.04, -75.07 18.25 80
5 09/09/2022 18:27:37 -0.01, -75.24 -0.14, -75.84 68.57 80
6 09/10/2022 18:11:32 -0.01, -75.25 0.86, -71.31 449.10 80
7 09/12/2022 06:33:20 0.01, -75.27 0.32, -76.58 149.01 80
8 09/13/2022 06:11:57 0.01, -75.29 -0.74, -72.06 369.11 80
9 09/14/2022 18:33:53 -0.01, -75.32 -0.49, -77.35 232.81 80
10 09/15/2022 18:17:50 -0.01, -75.33 0.58, -72.84 285.60 80
